[[{"header":{"parameterUnit":"m.s-1","parameterCategory":1,"la1":30.2991,"la2":30.254,"lo1":-89.0895,"lo2":-89.0444,"dy":0.0017,"dx":0.0017,"nx":28,"ny":28,"refTime":"2025-03-14T09:00:00:Z","depth":0,"parameterNumber":2,"parameterNumberName":"U-component_of_WINDS"},"data":[0,0,0,0,0,0,0,0,0,0,0,0,0,0,0,0,0,0,0,0,0,0,0,0,0,0,0,0,0,0,0,0,0,0,0,0,0,0,0,0,0,0,0,0,0,0,0,0,0,0,0,0,0,0,0,0,0,0,-2.4453,-2.4455,0,-2.4666,-2.4668,-2.4671,-2.4783,-2.4783,-2.4783,-2.4783,-2.5001,-2.5007,-2.5012,0,0,0,0,0,0,0,0,0,0,0,0,0,-2.4145,-2.415,-2.4453,-2.4456,-2.4458,-2.4665,-2.4668,-2.4671,-2.4783,-2.4783,-2.4783,-2.4783,-2.4999,-2.5006,-2.5013,0,0,0,0,0,0,0,0,0,0,0,0,0,-2.431,-2.4151,-2.4452,-2.4539,-2.4549,-2.4665,-2.4668,-2.4672,-2.4783,-2.4783,-2.4783,-2.4783,-2.4997,-2.5005,-2.5014,-2.506,0,0,-2.504,-2.5043,0,0,0,0,0,0,0,0,-2.43,-2.4321,-2.4523,-2.4533,-2.4544,-2.4698,-2.464,-2.4802,-2.4783,-2.4694,-2.4783,-2.4784,-2.49,-2.4917,-2.4956,-2.507,-2.508,-2.504,-2.5045,-2.5049,-2.5051,0,0,0,0,0,0,0,-2.4289,-2.4313,-2.4537,-2.4526,-2.4539,-2.4567,-2.4591,-2.4671,-2.4793,-2.4702,-2.471,-2.4734,-2.4906,-2.4947,-2.4962,-2.5083,-2.504,-2.5048,-2.5053,-2.5056,-2.5248,-2.5248,0,0,0,0,0,0,-2.4263,-2.4302,-2.453,-2.4544,-2.4421,-2.4573,-2.4599,-2.4648,-2.4792,-2.4814,-2.4733,-2.4738,-2.4933,-2.4952,-2.497,-2.5035,-2.5049,-2.5057,-2.5062,-2.5248,-2.5248,-2.5248,0,0,0,0,0,0,-2.4256,-2.4283,-2.4522,-2.4425,-2.4458,-2.4578,-2.4632,-2.4652,-2.4694,-2.4816,-2.4839,-2.4753,-2.4934,-2.4958,-2.5037,-2.5044,-2.5061,-2.5068,-2.5248,-2.5248,-2.5248,-2.5164,0,0,0,0,0,0,-2.4247,-2.4279,-2.4298,-2.4425,-2.4463,-2.4585,-2.4632,-2.4656,-2.4708,-2.4717,-2.4841,-2.4862,-2.4936,-2.5024,-2.5046,-2.5056,-2.5075,-2.5248,-2.5248,-2.5248,-2.5167,-2.5161,-2.5156,0,0,0,0,0,-2.4236,-2.4266,-2.4298,-2.4325,-2.4488,-2.4585,-2.4607,-2.4691,-2.4708,-2.4728,-2.4807,-2.4858,-2.5039,-2.5031,-2.5057,-2.5069,-2.5248,-2.5248,-2.5248,-2.5169,-2.5162,-2.5156,0,0,0,0,0,0,-2.4136,-2.4284,-2.4322,-2.4394,-2.4476,-2.4604,-2.4631,-2.4681,-2.4761,-2.4765,-2.4867,-2.4894,-2.4964,-2.5025,-2.5013,-2.5123,-2.5149,-2.5154,-2.508,-2.5075,-2.507,-2.5054,-2.5082,0,0,0,0,0,-2.4123,-2.4188,-2.4314,-2.4365,-2.4405,-2.4511,-2.4556,-2.4614,-2.4704,-2.4739,-2.4824,-2.4908,-2.4985,-2.5033,-2.511,-2.5176,-2.5205,-2.5197,-2.5192,-2.5187,-2.519,-2.5231,-2.5229,-2.5248,-2.5248,-2.5248,0,0,-2.4095,-2.4184,-2.4219,-2.4348,-2.4418,-2.4485,-2.4539,-2.4607,-2.4658,-2.4749,-2.483,-2.4894,-2.4996,-2.5069,-2.5105,-2.5122,-2.5192,-2.5187,-2.5182,-2.5189,-2.5231,-2.5229,-2.5227,-2.5248,-2.5248,-2.5248,0,0,-2.408,-2.4153,-2.4204,-2.4274,-2.438,-2.4451,-2.4463,-2.4584,-2.463,-2.4712,-2.4783,-2.4845,-2.4974,-2.5044,-2.5096,-2.5108,-2.5158,-2.513,-2.5103,-2.5141,-2.514,-2.5139,-2.5144,-2.5144,-2.5133,-2.5133,-2.5133,0,-2.4032,-2.4135,-2.4224,-2.4289,-2.4343,-2.443,-2.4483,-2.4546,-2.4672,-2.4708,-2.4725,-2.489,-2.4964,-2.5055,-2.5058,-2.5097,-2.5115,-2.5116,-2.5133,-2.5133,-2.5133,-2.5139,-2.514,-2.5129,-2.5129,-2.513,-2.513,0,-2.4072,-2.4142,-2.4171,-2.429,-2.4348,-2.4406,-2.4505,-2.4553,-2.4606,-2.4675,-2.4758,-2.485,-2.4948,-2.4974,-2.5026,-2.5073,-2.508,-2.5113,-2.5142,-2.5126,-2.5133,-2.5136,-2.5123,-2.5124,-2.5126,-2.5127,0,0,-2.3999,-2.4168,-2.4177,-2.4232,-2.4356,-2.4413,-2.4475,-2.4571,-2.461,-2.4694,-2.475,-2.4858,-2.489,-2.4949,-2.501,-2.5043,-2.5048,-2.5074,-2.5077,-2.5066,-2.5105,-2.508,-2.5081,-2.5082,-2.5082,-2.5083,-2.5097,0,-2.4001,-2.4117,-2.42,-2.4284,-2.435,-2.4433,-2.4488,-2.457,-2.4636,-2.4703,-2.4776,-2.4851,-2.4887,-2.4924,-2.496,-2.5039,-2.5057,-2.5039,-2.5135,-2.5137,-2.5107,-2.5084,-2.5057,-2.5066,-2.51,-2.5101,-2.5101,0,-2.4019,-2.4101,-2.4191,-2.4309,-2.434,-2.4387,-2.4482,-2.4544,-2.464,-2.4685,-2.4752,-2.4815,-2.4885,-2.4907,-2.5006,-2.4992,-2.5036,-2.5081,-2.5084,-2.5096,-2.5118,-2.5096,-2.5071,-2.5072,-2.5106,-2.5106,-2.5106,0,-2.3958,-2.409,-2.4162,-2.4207,-2.4345,-2.4377,-2.4436,-2.4532,-2.4584,-2.4668,-2.4703,-2.4793,-2.4842,-2.491,-2.4996,-2.5004,-2.5087,-2.5116,-2.5127,-2.5125,-2.5141,-2.5139,-2.5122,-2.5168,-2.5168,-2.5168,-2.5168,0,-2.3952,-2.4004,-2.4136,-2.418,-2.4241,-2.4336,-2.4394,-2.4461,-2.4545,-2.4604,-2.4682,-2.4735,-2.4846,-2.4913,-2.4981,-2.5053,-2.5074,-2.5114,-2.5131,-2.5107,-2.5102,-2.5138,-2.5139,-2.5169,-2.5169,-2.5168,-2.5168,0,-2.3893,-2.3984,-2.4067,-2.4192,-2.4225,-2.4264,-2.4372,-2.4418,-2.4488,-2.4562,-2.4585,-2.4695,-2.4779,-2.4871,-2.4985,-2.5031,-2.5099,-2.5124,-2.5067,-2.5077,-2.5083,-2.5081,-2.5089,-2.5095,-2.5136,-2.5135,-2.5135,0,-2.3884,-2.3926,-2.4055,-2.41,-2.4157,-2.4228,-2.4283,-2.4378,-2.4431,-2.4543,-2.4576,-2.4665,-2.4742,-2.4871,-2.4962,-2.505,-2.5078,-2.5075,-2.5092,-2.5067,-2.5079,-2.5076,-2.5081,-2.507,-2.5069,-2.5068,-2.5068,0,-2.3857,-2.39,-2.3974,-2.4065,-2.4127,-2.4203,-2.4283,-2.4315,-2.4426,-2.4482,-2.4569,-2.4628,-2.4745,-2.4833,-2.4932,-2.4994,-2.505,-2.5061,-2.5069,-2.5045,-2.501,-2.503,-2.5053,-2.5061,-2.5062,-2.5062,-2.5062,-2.5063,-2.3824,-2.3865,-2.3963,-2.4044,-2.4113,-2.4186,-2.4235,-2.4312,-2.4385,-2.4488,-2.454,-2.4626,-2.4721,-2.4861,-2.4921,-2.499,-2.5008,-2.5018,-2.5021,-2.5022,-2.5016,-2.4999,-2.5009,-2.5009,-2.5009,-2.5009,-2.501,0,-2.3801,-2.3868,-2.3942,-2.405,-2.4114,-2.416,-2.4251,-2.4301,-2.4375,-2.446,-2.4534,-2.4633,-2.4719,-2.4817,-2.4909,-2.4945,-2.4973,-2.4967,-2.4965,-2.4979,-2.4995,-2.4979,-2.4943,-2.4943,-2.4943,-2.4943,-2.4943,-2.4943,-2.3797,-2.387,-2.3925,-2.4034,-2.4101,-2.4185,-2.4233,-2.43,-2.4368,-2.4476,-2.4547,-2.461,-2.4701,-2.48,-2.4882,-2.4908,-2.4939,-2.4925,-2.4959,-2.4972,-2.4977,-2.4983,-2.4969,-2.493,-2.493,-2.4937,-2.4937,-2.4937]},{"header":{"parameterUnit":"m.s-1","parameterCategory":1,"la1":30.2991,"la2":30.254,"lo1":-89.0895,"lo2":-89.0444,"dy":0.0017,"dx":0.0017,"nx":28,"ny":28,"refTime":"2025-03-14T09:00:00:Z","depth":0,"parameterNumber":3,"parameterNumberName":"V-component_of_WINDS"},"data":[0,0,0,0,0,0,0,0,0,0,0,0,0,0,0,0,0,0,0,0,0,0,0,0,0,0,0,0,0,0,0,0,0,0,0,0,0,0,0,0,0,0,0,0,0,0,0,0,0,0,0,0,0,0,0,0,0,0,8.8615,8.8617,0,8.8801,8.8804,8.8806,8.8814,8.8812,8.881,8.8808,8.8993,8.9,8.9007,0,0,0,0,0,0,0,0,0,0,0,0,0,8.8263,8.8269,8.8615,8.8617,8.8619,8.8801,8.8804,8.8806,8.8815,8.8812,8.8809,8.8807,8.8991,8.8999,8.9008,0,0,0,0,0,0,0,0,0,0,0,0,0,8.8429,8.8272,8.8614,8.8646,8.865,8.8801,8.8804,8.8807,8.8815,8.8812,8.8809,8.8806,8.8988,8.8999,8.9009,8.9139,0,0,8.9041,8.9045,0,0,0,0,0,0,0,0,8.842,8.8442,8.8639,8.8644,8.8649,8.8781,8.8748,8.8918,8.8816,8.8752,8.8808,8.8804,8.8925,8.8941,8.8983,8.9147,8.9155,8.9042,8.9048,8.9053,8.9055,0,0,0,0,0,0,0,8.8408,8.8434,8.8688,8.8642,8.8648,8.865,8.867,8.878,8.8855,8.8758,8.8759,8.8781,8.8927,8.8972,8.8987,8.9158,8.9041,8.9051,8.9057,8.9061,8.9443,8.9446,0,0,0,0,0,0,8.8391,8.8424,8.8682,8.8694,8.8524,8.8659,8.8681,8.8742,8.8853,8.8867,8.8784,8.8781,8.8956,8.8975,8.8993,8.9156,8.9052,8.9062,8.9068,8.9439,8.9443,8.9448,0,0,0,0,0,0,8.8384,8.8414,8.8675,8.856,8.8593,8.8668,8.8737,8.8748,8.8793,8.8873,8.8886,8.8816,8.8954,8.8979,8.9104,8.9162,8.9067,8.9076,8.9434,8.944,8.9446,8.9479,0,0,0,0,0,0,8.8373,8.8411,8.8462,8.8561,8.8599,8.8783,8.874,8.8754,8.8811,8.8809,8.8907,8.892,8.8954,8.9088,8.9114,8.9175,8.9085,8.9429,8.9437,8.9444,8.9473,8.9486,8.9496,0,0,0,0,0,8.8361,8.8462,8.8464,8.8495,8.8664,8.8786,8.8808,8.8846,8.8816,8.8868,8.892,8.8917,8.9151,8.9101,8.913,8.9195,8.9426,8.9435,8.9443,8.9468,8.9483,8.9496,0,0,0,0,0,0,8.8365,8.8475,8.8479,8.8615,8.8692,8.8788,8.8853,8.886,8.8945,8.8939,8.8981,8.9003,8.9128,8.9174,8.9115,8.9328,8.9285,8.93,8.9294,8.9309,8.932,8.9307,8.9093,0,0,0,0,0,8.8382,8.8473,8.8564,8.8675,8.8714,8.8777,8.8832,8.8855,8.8935,8.8967,8.9028,8.9104,8.9196,8.9254,8.9342,8.948,8.9503,8.9539,8.955,8.9559,8.9572,8.9651,8.9669,8.9476,8.9476,8.9476,0,0,8.8417,8.8489,8.8543,8.8678,8.874,8.8834,8.8804,8.8903,8.8973,8.8981,8.9104,8.9152,8.924,8.9373,8.9434,8.9415,8.9631,8.957,8.9577,8.9585,8.9662,8.968,8.9697,8.9482,8.9481,8.948,0,0,8.853,8.8593,8.8694,8.8758,8.8854,8.8896,8.892,8.9016,8.9049,8.9174,8.9183,8.9266,8.9421,8.9485,8.9538,8.968,8.9681,8.9707,8.9766,8.9843,8.9858,8.9872,8.9925,8.9943,8.9719,8.9719,8.9719,0,8.8561,8.8704,8.8745,8.8846,8.8906,8.8921,8.9024,8.9083,8.9202,8.9242,8.9219,8.9418,8.9478,8.9627,8.9663,8.9704,8.9734,8.9696,8.9853,8.9867,8.9881,8.9932,8.9951,8.9722,8.9721,8.9721,8.9721,0,8.874,8.8838,8.8909,8.9027,8.9094,8.9195,8.9252,8.9315,8.9333,8.9378,8.9506,8.9579,8.9684,8.9721,8.9738,8.9874,8.986,8.9844,8.9802,8.9901,8.995,8.9969,8.9725,8.9724,8.9724,8.9723,0,0,8.8858,8.9001,8.9026,8.9081,8.9189,8.9266,8.9369,8.9474,8.9529,8.961,8.9699,8.9832,8.982,8.988,8.9904,8.9971,9.0083,8.9948,8.9951,8.9973,9.024,9.0253,9.0275,9.0084,9.0088,9.0091,9.0234,0,8.8985,8.9171,8.9212,8.9372,8.9465,8.9482,8.9572,8.9648,8.9693,8.9777,8.9826,8.9921,8.9897,8.9934,9.0001,9.0055,9.0137,9.0045,9.0167,9.0171,9.0146,9.03,9.0312,9.0443,9.0253,9.0256,9.0258,0,8.9157,8.9247,8.9417,8.9516,8.9557,8.9637,8.9739,8.982,8.9907,8.9935,9.0004,9.0023,9.0131,9.0083,9.0233,9.017,9.0222,9.0256,9.0262,9.0276,9.0221,9.032,9.0486,9.0506,9.0288,9.0286,9.0284,0,8.9231,8.9393,8.9517,8.9563,8.9681,8.9738,8.979,8.9874,8.9936,9.0024,9.0065,9.0164,9.0218,9.0294,9.0339,9.03,9.0487,9.0442,9.0514,9.0513,9.0553,9.055,9.0732,9.0584,9.0583,9.0583,9.0583,0,8.9369,8.9472,8.9552,8.9628,8.9746,8.9792,8.9907,8.9958,9.0033,9.012,9.0139,9.0219,9.0273,9.0361,9.0397,9.0518,9.0541,9.0567,9.0576,9.0567,9.0564,9.0603,9.0595,9.0588,9.0587,9.0586,9.0585,0,8.947,8.9527,8.9664,8.9766,8.9795,8.9877,8.9964,9.0039,9.0085,9.0195,9.0223,9.0295,9.0401,9.0453,9.0582,9.0607,9.0744,9.0745,9.0715,9.0719,9.0789,9.0783,9.1004,9.1037,9.0865,9.0866,9.0867,0,8.9555,8.9636,8.9749,8.9809,8.9863,8.996,9.0025,9.0074,9.014,9.0248,9.031,9.0417,9.0505,9.0672,9.0736,9.0836,9.0841,9.0912,9.0856,9.0846,9.0846,9.0841,9.0851,9.0922,9.0924,9.0925,9.0926,0,8.9701,8.9727,8.982,8.9925,9.0002,9.0086,9.0169,9.0217,9.028,9.0353,9.0463,9.0532,9.0667,9.0773,9.0879,9.0931,9.094,9.0944,9.0966,9.0958,9.0939,9.0953,9.0745,9.0938,9.0937,9.0936,9.0935,9.0935,8.9799,8.9873,8.9965,9.0069,9.0138,9.0216,9.0292,9.035,9.0443,9.0558,9.0581,9.0698,9.0786,9.0929,9.0985,9.1077,9.1061,9.1093,9.1101,9.1109,9.1114,9.0923,9.1096,9.1095,9.1095,9.1095,9.1095,0,8.9948,9.0009,9.0105,9.0222,9.0305,9.0308,9.0401,9.0469,9.0573,9.0654,9.0742,9.087,9.0974,9.1047,9.1153,9.1213,9.122,9.1239,9.1236,9.1248,9.112,9.1092,9.1232,9.1232,9.1232,9.1232,9.1232,9.1232,9.0036,9.0163,9.02,9.0361,9.0421,9.0538,9.0591,9.0663,9.0729,9.0872,9.096,9.1007,9.1087,9.1199,9.1295,9.1314,9.1353,9.1373,9.1392,9.1271,9.1257,9.1243,9.1216,9.1381,9.1381,9.1513,9.1514,9.1515]}]]